FW5801 Weather Reports


Display with metric or nautical units.
time (UTC)temp
F
wind
direction
speed
MPH
gust
MPH
rain 1hr
in
rain 24hr
in
rain mn
in
humidity
%
barometer
mb
20260506102600 44 352 7.0 12.0 0.01 0.88 0.23 93 1008.9
20260506102101 44 340 7.0 11.0 0.01 0.88 0.23 93 1008.7
20260506101603 44 352 6.0 11.0 0.01 0.88 0.23 93 1008.6
20260506101059 44 337 6.0 10.0 0.01 0.88 0.23 93 1008.6
20260506100600 44 343 3.0 9.0 0.01 0.88 0.23 93 1008.4
20260506095600 44 352 5.0 9.0 0.01 0.88 0.23 93 1008.2
20260506095100 44 352 3.0 8.0 0.01 0.88 0.23 93 1007.9
20260506094602 44 348 3.0 11.0 0.01 0.88 0.23 93 1007.6
20260506094059 44 32 2.0 14.0 0.00 0.87 0.22 93 1007.6
20260506093600 44 344 8.0 14.0 0.00 0.87 0.22 93 1008.0
20260506093101 44 15 6.0 11.0 0.01 0.87 0.22 93 1008.0
20260506092600 44 349 4.0 12.0 0.01 0.87 0.22 93 1007.7
20260506092100 44 10 4.0 12.0 0.02 0.87 0.22 93 1007.7
20260506091558 44 349 5.0 13.0 0.02 0.87 0.22 93 1007.9
20260506091059 44 18 5.0 13.0 0.03 0.87 0.22 93 1007.9
20260506090559 44 11 5.0 13.0 0.03 0.87 0.22 93 1008.1
20260506090059 44 330 6.0 15.0 0.04 0.87 0.22 93 1008.1
20260506085556 44 360 9.0 15.0 0.05 0.87 0.22 93 1008.0
20260506085059 44 340 7.0 13.0 0.05 0.87 0.22 93 1007.8
20260506084600 44 347 7.0 15.0 0.06 0.87 0.22 93 1007.8
20260506084100 44 352 5.0 16.0 0.06 0.87 0.22 93 1007.7
20260506083559 44 346 7.0 17.0 0.06 0.87 0.22 93 1007.8
20260506083100 44 351 9.0 17.0 0.05 0.86 0.21 92 1007.8
20260506082559 44 340 11.0 17.0 0.05 0.86 0.21 92 1008.0
20260506082103 44 330 10.0 16.0 0.05 0.85 0.20 93 1008.1
20260506081605 45 25 9.0 16.0 0.05 0.85 0.20 93 1008.0
20260506081100 45 360 10.0 16.0 0.04 0.84 0.19 93 1007.9
20260506080603 45 334 10.0 16.0 0.04 0.84 0.19 92 1007.8
20260506080112 45 344 10.0 17.0 0.04 0.83 0.18 93 1007.6
20260506073105 45 9 5.0 11.0 0.04 0.81 0.16 93 1007.5
20260506072557 45 340 5.0 15.0 0.05 0.81 0.16 93 1007.3
20260506072057 45 32 6.0 15.0 0.04 0.80 0.15 92 1007.2
20260506071601 45 11 6.0 12.0 0.05 0.80 0.15 93 1007.2
20260506071057 45 29 6.0 12.0 0.06 0.80 0.15 93 1007.1
20260506070556 45 21 6.0 15.0 0.06 0.80 0.15 92 1007.2
20260506070116 45 29 6.0 15.0 0.05 0.79 0.14 93 1007.0
20260506062100 45 44 7.0 16.0 0.06 0.76 0.11 92 1007.5
20260506061602 45 352 7.0 17.0 0.05 0.75 0.10 92 1007.5
20260506061057 46 343 9.0 17.0 0.05 0.74 0.09 92 1007.5
20260506060556 46 350 7.0 17.0 0.05 0.74 0.09 92 1007.6
20260506051059 47 360 5.0 13.0 0.04 0.69 0.04 93 1007.8
20260506050600 47 41 4.0 14.0 0.04 0.69 0.04 92 1007.4
20260506050112 47 23 7.0 14.0 0.03 0.68 0.03 92 1007.6
20260506045057 47 340 3.0 9.0 0.03 0.68 0.03 92 1007.5
20260506044603 48 352 4.0 12.0 0.01 0.66 0.01 92 1007.6
20260506044057 48 19 5.0 12.0 0.01 0.66 0.01 92 1007.7
20260506043558 48 26 4.0 12.0 0.00 0.65 0.00 92 1007.8
20260506043059 49 24 5.0 12.0 0.00 0.65 0.00 92 1007.9
20260506042556 49 329 5.0 10.0 0.00 0.65 0.00 92 1007.7
20260506042102 49 352 3.0 7.0 0.00 0.65 0.00 92 1007.5
20260506041600 49 9 2.0 6.0 0.01 0.65 0.00 92 1007.6
20260506041059 49 350 2.0 8.0 0.01 0.65 0.00 92 1007.7
20260506040559 49 74 2.0 9.0 0.01 0.65 0.00 92 1007.6
20260506040101 49 78 3.0 9.0 0.02 0.65 0.00 92 1007.5
20260506035559 49 10 3.0 9.0 0.03 0.65 0.65 92 1007.5
20260506035059 49 48 3.0 9.0 0.04 0.65 0.65 92 1007.7
20260506034559 49 17 4.0 9.0 0.06 0.65 0.65 92 1007.7
20260506034057 49 80 2.0 8.0 0.07 0.65 0.65 92 1007.6
20260506033558 49 55 3.0 11.0 0.08 0.65 0.65 92 1007.8
20260506033105 49 68 4.0 11.0 0.09 0.65 0.65 92 1007.9
20260506032558 49 24 4.0 14.0 0.09 0.65 0.65 92 1007.9
20260506032056 49 341 5.0 15.0 0.09 0.65 0.65 92 1007.8
20260506031602 49 11 6.0 15.0 0.08 0.64 0.64 92 1007.8
20260506031100 50 344 5.0 11.0 0.08 0.64 0.64 92 1008.3
20260506030559 50 352 4.0 14.0 0.08 0.64 0.64 91 1008.5
20260506030114 50 339 5.0 16.0 0.08 0.63 0.63 91 1008.3
20260506025559 50 345 8.0 16.0 0.07 0.62 0.62 90 1008.7
20260506025056 50 336 10.0 18.0 0.07 0.61 0.61 90 1008.7
20260506024559 51 32 8.0 18.0 0.06 0.58 0.58 90 1008.7
20260506024059 52 334 10.0 18.0 0.06 0.58 0.58 89 1008.4
20260506023559 54 344 5.0 10.0 0.05 0.57 0.57 88 1008.6
20260506023059 56 352 5.0 10.0 0.05 0.56 0.56 90 1008.3
20260506022558 57 289 2.0 6.0 0.06 0.56 0.56 92 1008.1
20260506022056 58 238 3.0 9.0 0.06 0.56 0.56 92 1007.9
20260506021607 58 212 2.0 9.0 0.07 0.56 0.56 92 1007.8
20260506021056 58 211 3.0 9.0 0.08 0.56 0.56 92 1007.7
20260506020559 58 225 3.0 6.0 0.08 0.56 0.56 92 1007.8
20260506020100 58 194 2.0 7.0 0.08 0.55 0.55 92 1007.8
20260506015600 58 234 2.0 7.0 0.08 0.55 0.55 92 1007.8
20260506015058 58 242 2.0 5.0 0.08 0.54 0.54 92 1007.9
20260506014602 58 216 1.0 5.0 0.07 0.52 0.52 92 1008.1
20260506014056 58 215 3.0 5.0 0.07 0.52 0.52 92 1008.0
20260506013600 58 238 2.0 5.0 0.07 0.52 0.52 92 1008.2
20260506013058 58 232 2.0 7.0 0.06 0.51 0.51 91 1008.0
20260506012559 58 244 3.0 7.0 0.05 0.50 0.50 91 1007.8
20260506012057 58 0 1.0 7.0 0.05 0.50 0.50 91 1007.7
20260506011600 58 198 2.0 7.0 0.05 0.49 0.49 91 1007.7
20260506011056 58 212 3.0 7.0 0.04 0.48 0.48 91 1007.7
20260506010557 58 201 4.0 7.0 0.04 0.48 0.48 91 1007.5
20260506010100 58 217 3.0 12.0 0.04 0.47 0.47 91 1007.5
20260506005559 59 215 6.0 14.0 0.04 0.47 0.47 91 1007.6
20260506005059 59 181 6.0 20.0 0.03 0.46 0.46 91 1007.5
20260506004629 59 199 7.0 20.0 0.03 0.46 0.46 92 1007.5
20260506004059 59 190 4.0 12.0 0.02 0.45 0.45 92 1007.5
20260506003559 59 211 5.0 13.0 0.02 0.45 0.45 92 1007.5
20260506003100 59 195 6.0 13.0 0.02 0.45 0.45 92 1007.5
20260506002559 59 0 3.0 9.0 0.03 0.45 0.45 93 1007.5
20260506002059 59 180 4.0 9.0 0.04 0.45 0.45 93 1007.4
20260506001601 59 221 3.0 9.0 0.03 0.44 0.44 93 1007.5
20260506001058 59 185 4.0 12.0 0.04 0.44 0.44 93 1007.5
20260506000559 59 198 4.0 12.0 0.04 0.44 0.44 93 1007.5
20260506000057 59 233 4.0 8.0 0.03 0.43 0.43 93 1007.5
20260505235558 59 201 4.0 9.0 0.05 0.43 0.43 93 1007.5
20260505235059 59 209 4.0 10.0 0.07 0.43 0.43 93 1007.6
20260505234615 59 217 4.0 10.0 0.07 0.43 0.43 93 1007.4
20260505234055 59 228 4.0 11.0 0.08 0.43 0.43 93 1007.6
20260505233559 59 250 5.0 11.0 0.08 0.43 0.43 93 1007.7
20260505233057 59 189 3.0 7.0 0.08 0.43 0.43 93 1007.7
20260505232556 59 229 4.0 7.0 0.07 0.42 0.42 93 1007.7
20260505232056 59 205 3.0 8.0 0.06 0.41 0.41 93 1007.7
20260505231600 59 223 3.0 8.0 0.06 0.41 0.41 92 1007.9
20260505231056 59 238 2.0 9.0 0.05 0.40 0.40 92 1008.0
20260505230559 59 214 2.0 9.0 0.05 0.40 0.40 92 1007.9
20260505230058 59 229 3.0 8.0 0.05 0.40 0.40 92 1008.1
20260505225559 59 231 3.0 7.0 0.04 0.38 0.38 92 1008.1
20260505225056 59 218 3.0 8.0 0.02 0.36 0.36 92 1008.1
20260505224559 59 246 3.0 9.0 0.02 0.36 0.36 92 1008.0
20260505224058 59 215 4.0 9.0 0.01 0.35 0.35 92 1008.1
20260505223555 59 255 3.0 9.0 0.01 0.35 0.35 92 1008.1
20260505223105 59 235 3.0 7.0 0.02 0.35 0.35 92 1008.1
20260505222556 59 232 3.0 8.0 0.02 0.35 0.35 92 1008.0
20260505222057 59 217 3.0 8.0 0.02 0.35 0.35 92 1008.1
20260505221608 59 242 3.0 9.0 0.03 0.35 0.35 91 1008.2
20260505221056 59 211 3.0 9.0 0.03 0.35 0.35 91 1008.2
20260505220600 59 236 4.0 12.0 0.05 0.35 0.35 91 1008.2
20260505220138 59 233 4.0 12.0 0.08 0.35 0.35 91 1008.1
20260505215557 59 244 4.0 10.0 0.08 0.34 0.34 91 1008.1
20260505215056 59 261 4.0 11.0 0.11 0.34 0.34 91 1008.2
20260505214618 59 239 4.0 11.0 0.34 0.34 0.34 91 1008.2
20260505214055 59 234 5.0 11.0 0.34 0.34 0.34 91 1008.2
20260505213602 59 253 2.0 11.0 0.34 0.34 0.34 91 1008.1
20260505213100 59 244 4.0 11.0 0.33 0.33 0.33 90 1008.1
20260505212603 59 257 5.0 12.0 0.33 0.33 0.33 90 1008.1
20260505212056 59 302 5.0 12.0 0.33 0.33 0.33 90 1008.1
20260505211613 59 254 4.0 17.0 0.32 0.32 0.32 89 1008.0
20260505211056 59 264 8.0 17.0 0.32 0.32 0.32 88 1008.0
20260505210557 60 263 8.0 13.0 0.30 0.30 0.30 87 1008.0
20260505210058 60 273 7.0 17.0 0.27 0.27 0.27 85 1008.1
20260505205557 62 232 9.0 24.0 0.26 0.26 0.26 82 1008.1
20260505205100 64 267 14.0 24.0 0.23 0.23 0.23 77 1008.0
20260505204602 67 290 11.0 22.0 0.00 0.00 0.00 70 1007.7
20260505204056 68 247 9.0 22.0 0.00 0.00 0.00 67 1007.3
20260505203556 68 230 13.0 22.0 0.00 0.00 0.00 64 1007.1
20260505203059 68 234 10.0 20.0 0.00 0.00 0.00 65 1007.2
20260505202559 68 231 9.0 20.0 0.00 0.00 0.00 64 1007.3
20260505202100 68 217 8.0 19.0 0.00 0.00 0.00 64 1007.3
20260505201609 68 190 8.0 20.0 0.00 0.00 0.00 64 1007.2
20260505201056 68 190 8.0 20.0 0.00 0.00 0.00 64 1007.5
20260505200557 68 220 10.0 21.0 0.00 0.00 0.00 64 1007.5
20260505200105 68 212 10.0 21.0 0.00 0.00 0.00 64 1007.5
20260505195555 68 215 9.0 20.0 0.00 0.00 0.00 63 1007.5
20260505195056 68 212 8.0 20.0 0.00 0.00 0.00 64 1007.6
20260505194606 68 217 10.0 20.0 0.00 0.00 0.00 64 1007.7
20260505194057 68 184 7.0 19.0 0.00 0.00 0.00 65 1007.8
20260505193556 68 202 11.0 19.0 0.00 0.00 0.00 64 1008.1
20260505193056 68 233 10.0 20.0 0.00 0.00 0.00 64 1008.0
20260505192556 68 234 12.0 20.0 0.00 0.00 0.00 64 1008.0
20260505192102 68 229 6.0 23.0 0.00 0.00 0.00 65 1008.1
20260505191557 68 235 10.0 25.0 0.00 0.00 0.00 64 1008.1
20260505191056 68 213 13.0 25.0 0.00 0.00 0.00 63 1008.2
20260505190601 68 267 11.0 25.0 0.00 0.00 0.00 64 1008.2
20260505190107 68 217 9.0 22.0 0.00 0.00 0.00 63 1008.5
20260505185601 68 252 11.0 22.0 0.00 0.00 0.00 64 1008.3
20260505185058 68 221 11.0 21.0 0.00 0.00 0.00 63 1008.5
20260505184600 68 260 13.0 22.0 0.00 0.00 0.00 64 1008.6
20260505184101 68 227 12.0 22.0 0.00 0.00 0.00 63 1008.7
20260505183558 67 263 9.0 20.0 0.00 0.00 0.00 64 1008.7
20260505183101 67 182 9.0 20.0 0.00 0.00 0.00 65 1008.9
20260505182600 67 262 10.0 20.0 0.00 0.00 0.00 65 1009.1
20260505182100 67 225 8.0 22.0 0.00 0.00 0.00 65 1009.1
20260505181600 67 244 11.0 22.0 0.00 0.00 0.00 64 1009.1
20260505181100 67 273 12.0 24.0 0.00 0.00 0.00 64 1008.9
20260505180600 67 260 13.0 24.0 0.00 0.00 0.00 64 1008.9
20260505175602 67 237 9.0 20.0 0.00 0.00 0.00 65 1008.9
20260505175100 67 261 9.0 18.0 0.00 0.00 0.00 65 1009.0
20260505174559 67 263 8.0 16.0 0.00 0.00 0.00 65 1009.0
20260505174100 67 233 7.0 16.0 0.00 0.00 0.00 65 1008.9
20260505173600 67 248 7.0 15.0 0.00 0.00 0.00 66 1008.9
20260505173101 67 252 7.0 15.0 0.00 0.00 0.00 66 1009.0
20260505172558 67 253 6.0 15.0 0.00 0.00 0.00 66 1008.8
20260505172100 68 291 6.0 16.0 0.00 0.00 0.00 65 1008.9
20260505171559 68 277 5.0 20.0 0.00 0.00 0.00 65 1009.0
20260505171104 68 257 10.0 21.0 0.00 0.00 0.00 64 1009.1
20260505170600 68 253 8.0 21.0 0.00 0.00 0.00 64 1009.1
20260505170105 68 267 9.0 17.0 0.00 0.00 0.00 63 1009.1
20260505165600 69 257 6.0 22.0 0.00 0.00 0.00 64 1009.1
20260505165104 69 250 10.0 22.0 0.00 0.00 0.00 63 1009.1
20260505164633 69 242 9.0 21.0 0.00 0.00 0.00 63 1009.1
20260505164057 69 252 8.0 19.0 0.00 0.00 0.00 63 1009.1
20260505163600 69 245 9.0 19.0 0.00 0.00 0.00 63 1009.0
20260505163059 70 263 7.0 17.0 0.00 0.00 0.00 64 1008.9
20260505162600 69 249 8.0 16.0 0.00 0.00 0.00 64 1008.9
20260505162100 69 275 8.0 19.0 0.00 0.00 0.00 64 1008.9
20260505161600 69 271 10.0 19.0 0.00 0.00 0.00 63 1008.9
20260505161101 69 221 9.0 19.0 0.00 0.00 0.00 64 1008.9
20260505160601 68 240 8.0 24.0 0.00 0.00 0.00 64 1009.0
20260505160109 68 253 10.0 24.0 0.00 0.00 0.00 63 1009.0
20260505153100 68 239 11.0 21.0 0.00 0.00 0.00 65 1008.9
20260505152600 68 279 11.0 21.0 0.00 0.00 0.00 65 1008.9
20260505152101 67 249 11.0 18.0 0.00 0.00 0.00 67 1008.8
20260505151606 66 288 7.0 21.0 0.00 0.00 0.00 69 1008.8
20260505151100 66 244 9.0 21.0 0.00 0.00 0.00 68 1008.8
20260505150602 65 270 10.0 20.0 0.00 0.00 0.00 68 1008.8
20260505140557 61 244 8.0 20.0 0.00 0.00 0.00 80 1008.1
20260505140117 60 225 6.0 20.0 0.00 0.00 0.00 80 1008.2
20260505130103 58 265 6.0 14.0 0.00 0.00 0.00 84 1008.1
20260505124605 58 242 8.0 15.0 0.00 0.00 0.00 84 1008.1
20260505124057 58 231 5.0 15.0 0.00 0.00 0.00 85 1008.2
20260505123559 58 248 8.0 18.0 0.00 0.00 0.00 85 1008.3
20260505123100 58 218 6.0 19.0 0.00 0.00 0.00 85 1008.2
20260505122559 57 258 9.0 19.0 0.00 0.00 0.00 85 1008.1
20260505122057 57 192 7.0 15.0 0.00 0.00 0.00 85 1007.9
20260505121602 57 218 7.0 15.0 0.00 0.00 0.00 86 1007.9
20260505121057 57 221 7.0 15.0 0.00 0.00 0.00 86 1008.0
20260505120559 57 234 4.0 15.0 0.00 0.00 0.00 87 1007.8
20260505120115 56 188 7.0 16.0 0.00 0.00 0.00 87 1007.6
20260505115600 56 178 6.0 16.0 0.00 0.00 0.00 87 1007.3
20260505115100 56 237 8.0 16.0 0.00 0.00 0.00 87 1007.0
20260505114602 56 182 7.0 14.0 0.00 0.00 0.00 87 1006.8
20260505114100 56 190 6.0 12.0 0.00 0.00 0.00 87 1006.8
20260505113559 56 211 6.0 12.0 0.00 0.00 0.00 87 1007.1
20260505113109 56 207 5.0 10.0 0.00 0.00 0.00 86 1007.3
20260505112600 56 191 3.0 9.0 0.00 0.00 0.00 86 1007.3
20260505112100 56 215 4.0 9.0 0.00 0.00 0.00 86 1007.2
20260505111559 56 197 4.0 12.0 0.00 0.00 0.00 86 1007.5
20260505111057 56 211 3.0 12.0 0.00 0.00 0.00 85 1007.4
20260505110557 56 229 5.0 9.0 0.00 0.00 0.00 85 1007.6
20260505110109 56 243 4.0 10.0 0.00 0.00 0.00 85 1007.5